Location: Sihaung
(22.8641°N, 94.0549°E)
Time: 02:05:38
(UTC+00:00)

CZ-4 R/B - Pass Details

Date: 03 March 2021
Orbit: 532 x 597 km, 97.7° (Epoch: 12 April)

Event Time Altitude Azimuth Distance (km) Brightness Sun altitude
Rises 13:07:47 0° 189° (S) 2,662 4.9 -19.1°
Reaches altitude 10° 13:10:06 10° 201° (SSW) 1,773 4.1 -19.7°
Maximum altitude 13:13:24 28° 261° (W) 1,020 3.4 -20.4°
Drops below altitude 10° 13:16:44 10° 322° (NW) 1,785 4.4 -21.2°
Sets 13:19:05 0° 334° (NNW) 2,684 5.2 -21.7°
